THORAD DELTA 1 DEB, 8142

Orbit data source: Space-Track

THORAD DELTA 1 DEB, 8142 is space debris in SSO originally from a launch on Fri, 15 Nov 1974 UTC launched from the Air Force Western Test Range (AFWTR). Debris objects in space refer to the collection of defunct objects orbiting the Earth. Examples of debris include non-operational satellites, rocket bodies, and fragments generated from explosions, collisions, or faulty payload assembly.

Loading next visibility...
Identifier
8142, 1974-089L
Orbit
SSO
Country
Flag of USUS
Related business
Manufacturer
Unknown
Mission
Spacecraft
Bus & Motor
Unknown
Mass
Unknown
Launch date (UTC)
1974-11-15 (51 years ago)
Launch vehicle
Unknown
Launch site
Air Force Western Test Range (AFWTR)
Object type
Payload
Rocket body
Debris
Shape & HBR
Unknown shape, 0.4 m
Radar Cross Section
Medium (>0.1 m² and <1 m²)

Expand to show TLE details & history
Last TLE update: 6 hours ago

TLE from 6 hours ago
0 THORAD DELTA 1 DEB
1  8142U 74089L   26125.44156829 -.00006746  00000-0 -31113-1 0  9993
2  8142 101.1986  22.3044 0471902  37.6262 132.9577 12.46270640277133
Epoch: 2026-05-05T10:35Z
TLE epoch observation values (Epoch: 2026-05-05T10:35:51.500Z)
Latitude
5.43389°
Longitude
-178.90254°
Altitude
1,743.877 km
Speed
6.889 km/s
True Right ascension
13h 33m 30s
True Declination
5° 24' 20"
Sunlit
Object was in full shadow at epoch
Visualization orbit readout
Latitude
Unknown
Longitude
Unknown
Altitude
Unknown
Speed
Unknown
Apparent Right ascension
Unknown
Apparent Declination
Unknown
Sunlit
N/A
Visualization observer readout
Local Sidereal Time
00:11:43
Azimuth
Unknown
Elevation
Unknown
Doppler factor
Unknown
Orbital elements
Apogee altitude
1,848.361 km
Perigee altitude
1,106.929 km
Semi-major axis
7,855.782 km
Eccentricity
0.04719
Inclination
101.1986°
RAAN
22.3044°
Arg. of periapsis
37.6262°
True anomaly
136.75935°
Mean anomaly
132.9577°
Eccentric anomaly
134.87378°
Mean motion
3.11716 °/min
Orbital period
115.49 mins
BSTAR
-0.031113
Loading maneuver chart data...
Computing Atmospheric mass density...

Documentation

Showing up to 5 results
|